{"data":{"norad_id":52467,"epoch":"2026-09-19T16:48:53.319168Z","epoch_age_seconds":132239,"freshness":"FRESH","line1":"1 52467U 22049S   26262.70061712  .00004545  00000+0  14570-3 0  9990","line2":"2 52467  53.1586 257.1879 0001467  98.0028 262.1141 15.34367867241686","mean_motion":15.34367867,"eccentricity":0.0001467,"inclination_deg":53.1586,"raan_deg":257.1879,"arg_perigee_deg":98.0028,"mean_anomaly_deg":262.1141,"bstar":0.0001457,"rev_number":24168,"period_min":93.849723457484,"perigee_km":461.79518264736,"apogee_km":463.8023131958,"semimajor_km":6840.9357479216,"source":"CELESTRAK","updated_at":"2026-09-20T09:00:40.050585Z"}}